Dewpoint
9 10 10 10 11 9 9 8 7 6 1 -17 -27 -30 -27 -24 -23 -22 -21 -18 -17 -16 -20 -16 -20 -20 -10 -10 -11 -9 -9 -9 -6 -5 -2 -0 2 3 4 5 5 5 5 5 4 3 2
10 10 10 10 10 10 9 8 8 7 6 -11 -25 -30 -28 -24 -23 -22 -20 -18 -17 -17 -21 -16 -11 -9 -7 -11 -10 -8 -7 -7 -7 -4 -5 -3 1 3 4 3 4 3 2 2 1 -0 -2
10 10 10 11 10 11 10 9 8 8 6 0 -22 -30 -29 -25 -23 -21 -19 -19 -18 -17 -21 -21 -10 -10 -13 -10 -8 -8 -5 -6 -7 -6 -1 0 -1 -1 2 2 2 1 2 0 -0 -1 -2
9 9 10 9 10 10 11 10 9 9 7 6 -11 -29 -29 -26 -23 -21 -19 -19 -18 -19 -21 -21 -12 -8 -10 -9 -8 -6 -5 -5 -4 -4 -4 -2 0 1 1 1 1 0 -1 -0 -3 -4 -4
7 8 9 10 9 10 10 11 10 9 8 6 4 -25 -30 -26 -23 -20 -18 -18 -17 -19 -22 -22 -10 -6 -11 -10 -8 -6 -6 -4 -4 -3 -3 -3 -3 -1 0 -0 -1 -3 -2 -2 -3 -6 -8
4 7 8 9 10 9 10 10 11 10 9 7 6 -7 -30 -26 -22 -20 -17 -17 -18 -14 -19 -19 -11 -7 -12 -11 -9 -7 -7 -4 -4 -4 -4 -3 -3 -2 -3 -3 -2 -3 -3 -4 -6 -8 -11
-0 3 6 8 9 10 10 9 10 10 9 9 7 3 -29 -27 -21 -19 -17 -13 -8 -5 -9 -7 -9 -10 -11 -11 -11 -9 -7 -5 -5 -5 -4 -5 -4 -3 -5 -9 -10 -9 -5 -7 -9 -11 -10
-0 -0 2 6 8 9 10 10 10 10 10 9 8 5 -21 -27 -21 -17 -16 2 -4 -5 -10 -11 -9 -10 -11 -10 -12 -11 -9 -7 -5 -4 -5 -5 -3 -9 -13 -13 -10 -9 -9 -9 -11 -11 -7
-2 0 0 2 6 8 9 10 9 10 10 9 8 6 -12 -27 -20 -16 -15 0 -7 -8 -6 -11 -12 -11 -11 -10 -11 -12 -11 -10 -7 -5 -5 -4 -7 -12 -14 -12 -11 -11 -10 -9 -10 -11 -8
-1 -1 -1 -0 2 6 9 9 10 10 10 10 9 7 -8 -25 -19 -13 -11 -12 -12 -11 -2 -9 -14 -13 -12 -10 -10 -12 -11 -9 -7 -6 -7 -7 -12 -12 -12 -12 -10 -11 -12 -13 -11 -10 -8
-3 -3 -2 -1 0 4 8 9 10 10 10 10 9 7 -6 -23 0 -4 -3 -15 -15 -7 10 -11 -15 -13 -13 -12 -11 -13 -12 -11 -8 -7 -7 -7 -11 -11 -11 -10 -10 -8 -13 -12 -12 -11 -9
-4 -4 -3 -4 -4 1 6 9 9 10 10 10 9 7 -6 -23 -9 1 -9 -15 -10 7 5 -10 -15 -14 -13 -12 -13 -13 -12 -10 -10 -8 -7 -8 -10 -9 -10 -12 -13 -11 -10 -10 -10 -8 -3
-6 -4 -4 -3 -3 -1 4 8 9 10 10 10 9 8 -7 -7 -1 -4 -14 -10 6 11 -8 -10 -14 -13 -13 -12 -12 -13 -10 -8 -4 -2 -5 -10 -9 -11 -10 -11 -11 -10 -6 6 1 3 3
-5 -5 -5 -4 -3 -3 1 6 8 9 10 9 10 8 -9 -13 3 -5 -11 -0 7 -1 -8 -14 -14 -12 -11 -12 -11 -12 -11 -8 -9 -9 -6 -6 -4 -10 -9 -7 -7 -8 -4 13 8 3 -1
-5 -4 -6 -6 -4 -3 -1 5 7 8 9 9 9 8 -10 -16 -8 -7 -0 8 6 -3 -9 -12 -12 -10 -10 -11 -7 -9 -9 -9 -9 -8 -1 -3 -6 -10 -10 -9 -7 -7 -1 -2 1 1 -2
-6 -5 -5 -7 -7 -4 -2 2 6 8 9 9 9 8 -4 -20 -12 -3 4 5 -5 -9 -13 -12 -6 -8 -7 -9 -8 -7 -8 -10 -10 -10 -5 -6 -1 -10 -9 -9 -7 -1 -4 5 10 7 6
-6 -6 -5 -8 -4 -7 -3 0 5 7 8 7 8 -0 -3 -3 -11 -0 7 2 -6 -10 -13 -10 -9 -7 -8 -7 -9 -7 -8 -6 -9 -7 -8 -7 3 -7 -9 -8 -6 -2 1 1 6 5 9
-6 -7 -6 -7 -7 -10 -4 -2 2 5 6 6 3 2 6 -3 -1 2 6 -3 -7 -9 -12 -8 -9 -7 -6 -8 -9 -9 -9 -8 -9 -7 -7 -5 3 0 -8 -7 -8 -6 -4 -1 10 6 6
-5 -6 -6 -6 -7 -6 -6 -2 -0 4 5 6 1 3 7 -1 6 5 -4 -3 -6 -8 -9 -8 -7 -7 -6 -4 -4 -5 -7 -5 -7 -6 -6 -3 5 7 -4 -5 -7 -3 -2 4 7 3 6
-6 -5 -5 -5 -3 -3 -6 -2 0 4 5 6 1 6 5 4 -1 -0 -2 -2 -3 -6 -8 -10 -8 -7 -5 -3 -5 -2 -4 -5 -6 -6 -5 -6 -4 6 7 6 4 4 2 4 6 8 3
-6 -6 -4 -4 -3 -2 -4 -3 0 3 4 5 3 3 3 3 5 -1 -1 -3 -2 -3 -7 -9 -5 -6 -3 -1 -2 -1 -5 -4 -5 -4 -4 -4 5 2 1 -4 -4 -4 -2 1 5 1 1
-7 -6 -6 -5 -4 -4 -5 -5 -1 3 4 5 3 4 3 -1 -3 0 1 0 -2 -3 -5 -6 -5 -6 -5 -0 -0 -0 -5 -4 -4 -3 -3 -4 4 -1 1 -6 -7 -8 -10 -5 -1 -2 -4
-6 -7 -6 -5 -5 -5 -5 -5 -2 2 3 4 4 3 1 1 -1 2 3 -1 -2 -3 -4 -5 -6 -6 -5 -5 -5 -4 -5 -5 -6 -2 -1 -1 4 2 2 -5 -5 1 -3 -6 -6 -6 -4
-6 -6 -5 -5 -5 -5 -6 -6 -1 1 3 4 4 4 4 4 0 0 -1 -2 -2 -4 -2 -5 -6 -5 -3 -3 -4 -4 -4 -4 -5 -5 -4 -2 1 5 8 -3 3 -8 -9 -9 -6 -6 -6
-7 -7 -6 -6 -5 -5 -6 -7 -2 1 2 4 5 4 4 6 -0 -2 -1 -2 -3 -3 -3 -5 -4 -3 -4 -4 3 5 6 3 -1 -5 -4 -4 2 7 7 1 -5 -7 -9 -10 -11 -7 -8
-6 -6 -7 -9 -6 -3 -3 -6 0 1 2 4 5 5 5 5 4 0 -1 -2 2 1 -1 -0 -1 -2 -3 2 7 6 6 3 2 -3 -6 -5 -1 3 3 6 5 -0 -9 -9 -10 -4 -7
-7 -6 -8 -6 -5 -2 -3 -6 -0 1 3 3 5 5 6 5 4 2 2 1 -2 -3 3 0 -0 -1 -0 6 6 3 2 -4 2 3 1 0 3 6 5 2 -2 -8 -10 -9 -4 2 -6
-6 -8 -6 -4 -4 -2 -2 -5 -1 1 2 3 4 5 6 5 4 4 2 -1 -2 -2 6 0 3 2 5 6 6 6 3 3 -0 -2 -2 0 3 6 4 7 4 -9 -10 -8 -2 -4 -5
-5 -8 -6 -4 -2 -2 -2 -3 -2 0 2 3 4 5 5 4 4 4 3 2 1 -1 2 0 1 0 3 8 7 6 6 5 1 3 -5 0 0 4 3 3 -2 -8 -3 -3 -4 -4 -4
Wind_Speed
23 21 20 17 17 13 11 8 9 10 11 8 6 6 4 4 5 4 3 3 3 5 6 8 6 4 1 3 7 14 8 5 6 7 8 17 19 16 16 26 32 27 28 28 27 25 25
23 23 22 20 17 16 13 10 9 10 11 10 7 6 6 5 5 5 3 3 2 4 5 7 9 8 5 8 11 12 8 3 3 4 6 7 20 27 33 18 11 27 29 27 24 24 25
23 26 24 21 19 16 15 13 11 11 10 11 9 6 5 7 5 4 4 2 2 3 4 5 9 10 10 5 11 7 9 3 1 1 21 24 18 5 17 26 27 31 26 23 22 19 19
26 22 25 27 24 20 18 16 13 12 11 10 9 8 5 6 7 5 3 3 2 3 3 4 6 10 4 9 11 11 8 12 13 12 5 9 25 24 8 30 22 19 15 13 12 19 14
32 26 22 26 28 26 22 16 16 13 13 10 9 9 6 6 7 6 3 3 1 3 3 5 3 5 5 9 9 11 9 10 14 17 17 14 8 16 30 18 14 15 12 18 12 14 10
39 34 29 21 28 29 26 22 17 17 15 12 10 10 7 5 7 6 3 2 3 3 6 8 4 2 3 6 4 8 9 10 16 17 15 17 20 13 12 14 8 11 15 13 10 11 9
27 41 37 30 23 25 28 26 20 18 16 14 10 10 8 6 5 4 2 3 2 2 7 4 2 3 8 7 7 5 7 5 3 5 6 8 8 12 16 4 12 6 15 11 11 12 12
21 24 36 39 30 24 24 26 23 18 18 17 12 10 8 7 5 4 4 6 5 1 3 5 3 6 6 2 6 6 3 3 5 7 5 8 5 6 4 2 6 9 8 11 6 6 5
21 20 24 32 36 26 29 27 25 19 19 18 13 11 10 7 5 5 7 5 3 6 4 1 3 5 4 4 1 5 4 1 6 4 9 5 7 3 1 4 6 6 8 8 5 8 10
21 22 21 24 32 33 25 27 25 22 21 20 15 12 10 5 2 6 5 5 7 1 3 5 5 2 5 2 1 2 2 3 1 5 7 6 1 2 6 6 8 6 7 2 6 9 2
25 24 23 22 24 35 28 23 27 26 22 22 19 14 9 10 4 2 8 6 4 1 2 6 6 3 5 6 11 2 3 3 3 3 3 3 3 4 7 6 7 6 4 4 6 9 9
23 23 23 25 23 29 34 23 30 29 23 23 22 14 11 10 8 6 8 8 1 5 4 5 4 7 9 4 3 6 3 7 8 10 11 4 3 6 6 5 4 4 3 3 3 7 6
24 24 24 23 21 28 37 28 27 32 26 25 24 17 15 12 5 11 11 8 2 2 4 6 5 8 11 6 7 9 9 7 5 4 5 6 2 2 5 6 3 6 5 2 5 4 5
26 26 26 25 22 24 31 31 32 32 28 25 25 21 18 19 7 12 15 6 3 7 4 5 6 8 10 7 6 9 10 8 9 10 7 7 3 4 2 3 3 8 7 2 4 3 4
27 25 28 27 24 21 29 35 29 33 28 26 29 24 23 25 19 17 12 2 7 8 9 8 9 9 8 8 3 6 8 10 9 7 5 6 5 3 4 4 5 5 3 6 4 6 3
29 26 25 25 27 24 27 30 27 31 30 25 30 24 23 26 20 18 6 6 8 2 9 13 5 6 8 9 5 6 9 6 8 4 5 2 4 4 3 3 3 4 5 2 2 1 3
29 27 25 24 24 26 26 27 29 30 30 22 29 13 12 26 23 16 5 9 7 8 13 8 4 9 10 7 10 8 4 2 4 5 3 2 4 4 2 7 8 3 2 3 3 3 2
28 27 27 24 25 24 26 28 26 22 20 25 28 5 18 27 14 13 10 15 12 13 12 3 7 5 8 7 5 7 8 2 6 11 5 1 3 4 5 3 4 5 9 8 3 4 3
27 27 26 26 24 23 26 27 26 19 20 35 24 9 13 25 7 11 16 18 11 14 14 8 7 4 3 6 3 8 3 6 5 7 4 6 4 2 3 3 2 4 3 4 2 2 5
27 24 25 24 24 23 26 27 28 21 21 32 15 3 6 17 23 18 20 22 16 18 17 10 7 8 6 6 8 2 2 3 1 4 2 2 3 5 3 3 4 2 3 3 4 3 2
27 24 21 21 24 25 27 27 29 23 26 34 13 9 10 6 13 20 23 18 21 13 19 17 9 10 9 6 11 8 3 4 2 5 2 3 3 1 2 6 6 6 5 11 9 15 6
26 25 23 21 21 26 27 28 31 26 33 33 13 9 9 18 27 21 18 22 25 21 16 19 11 14 12 5 6 6 8 6 5 10 8 5 2 2 3 10 10 11 11 13 16 18 19
25 25 24 23 21 23 29 30 32 30 44 22 19 18 15 18 24 16 17 23 22 25 20 22 19 11 11 6 9 6 7 12 11 9 10 7 2 2 3 2 5 6 17 18 16 11 17
26 24 24 23 23 22 30 33 35 36 51 26 27 24 9 4 14 19 24 30 23 24 16 16 14 14 10 17 15 14 8 3 5 9 10 5 5 2 2 1 4 6 2 4 10 15 16
28 26 26 24 25 25 31 35 37 38 43 44 28 21 13 3 22 25 29 26 26 20 17 17 8 8 21 14 4 5 2 3 4 5 6 8 4 2 2 5 10 12 6 2 4 6 9
28 28 28 27 27 25 32 34 35 38 38 59 30 29 18 13 14 31 24 28 13 12 14 8 10 16 21 4 3 4 4 4 3 6 3 6 5 4 3 3 4 3 4 1 0 3 7
30 28 27 26 23 26 33 37 38 37 35 59 40 25 19 11 8 20 14 15 26 16 7 12 12 11 8 3 3 4 6 9 7 8 5 4 2 5 4 4 6 6 5 2 2 2 6
32 29 28 26 24 29 35 37 39 39 41 58 44 27 14 9 9 16 21 23 23 23 8 18 7 5 2 3 4 4 4 4 5 9 7 8 7 4 4 2 7 7 4 3 4 4 4
34 29 28 25 28 35 36 38 39 42 35 61 35 29 14 19 8 14 7 10 15 20 21 25 13 17 11 3 4 4 1 1 5 3 7 5 5 4 8 4 5 3 7 5 3 7 6
Wind_Direction
245 240 246 248 250 261 275 292 314 338 344 332 328 320 308 311 307 309 312 309 351 7 14 29 80 108 235 76 12 353 3 110 46 355 104 114 104 102 96 100 99 104 111 108 108 108 107
250 244 246 246 245 255 261 272 291 317 340 333 324 324 309 299 293 299 301 296 340 358 30 63 73 39 320 67 358 353 37 344 333 98 33 164 97 111 114 105 99 117 110 113 116 114 113
236 243 242 248 245 243 248 262 273 296 320 337 328 316 310 296 288 284 292 280 307 342 43 100 87 51 66 48 15 21 46 55 136 132 108 111 116 126 108 100 121 121 116 115 123 132 130
235 235 243 247 246 237 241 249 261 277 296 322 337 308 305 297 288 277 273 269 273 333 27 131 87 58 58 68 64 68 84 82 91 93 114 113 116 117 113 126 134 126 126 129 146 142 160
242 238 240 243 242 242 236 245 245 258 276 293 329 306 296 301 286 279 257 231 283 355 29 113 78 351 110 67 68 76 97 99 104 102 109 118 91 122 136 142 153 190 163 131 154 191 155
246 242 240 236 240 244 239 234 244 246 261 275 299 309 295 296 289 278 257 164 54 44 55 95 48 27 134 110 85 79 75 117 105 107 110 112 119 143 161 179 164 211 130 155 161 187 204
254 243 242 239 238 234 237 233 231 238 246 266 284 304 293 283 283 266 197 125 316 135 43 38 42 74 108 127 99 97 86 120 162 203 166 208 180 174 181 338 302 182 126 172 139 162 200
262 258 245 239 236 237 235 230 229 230 239 253 266 289 283 268 260 234 183 0 19 86 62 64 103 99 127 165 130 107 112 240 235 206 172 185 105 49 64 329 281 106 166 113 122 192 271
261 262 256 246 235 237 240 234 228 227 231 241 253 271 280 261 247 224 193 297 230 153 250 124 115 149 146 317 110 94 328 294 247 182 207 188 77 17 141 193 189 159 170 166 193 187 251
257 257 259 246 239 233 238 227 228 220 227 231 239 253 263 239 288 240 218 224 186 151 220 141 192 166 186 117 62 68 29 358 256 222 89 60 78 96 209 144 357 157 56 180 152 197 261
259 259 258 261 240 229 227 230 222 217 219 221 229 237 244 209 177 194 229 197 188 269 37 159 125 143 163 198 141 143 133 272 199 78 359 66 140 200 204 68 350 87 151 209 204 244 316
259 260 258 259 255 232 226 219 216 213 212 214 221 221 225 216 215 201 212 180 150 41 234 163 151 182 168 196 152 143 115 90 93 76 60 72 35 19 34 113 5 130 163 215 264 257 262
257 256 254 254 259 233 227 216 224 212 207 214 217 216 210 170 218 223 175 170 109 179 191 147 187 168 183 193 177 181 169 160 177 135 141 146 75 14 307 120 149 218 198 220 226 183 247
253 255 257 254 255 240 228 217 221 219 200 212 215 216 204 195 225 194 172 206 125 210 174 104 157 179 189 169 216 210 187 190 224 226 146 176 195 177 160 356 291 220 215 171 266 261 322
251 255 255 252 249 248 229 217 220 222 206 210 216 208 207 198 194 187 187 140 199 222 138 153 126 175 195 170 328 222 245 209 198 232 190 199 123 85 339 352 327 192 240 353 290 294 278
248 251 254 252 245 241 230 220 215 215 208 214 206 200 212 207 194 183 209 201 224 249 153 160 130 175 210 197 202 205 204 223 186 193 16 355 111 189 126 307 251 316 335 177 31 114 247
245 246 251 251 249 236 234 223 215 214 198 217 194 157 235 211 185 187 180 194 203 164 165 179 152 150 199 198 204 201 208 60 176 154 245 158 102 147 93 210 198 191 230 238 191 233 274
241 244 248 254 246 240 234 222 221 215 211 215 161 113 192 195 177 188 202 196 236 172 180 160 164 143 153 163 225 248 240 197 133 148 200 125 87 174 204 75 341 318 226 199 154 248 243
238 241 246 253 241 239 230 220 219 212 219 189 152 139 197 187 191 187 198 213 213 177 190 175 167 145 183 138 82 266 247 8 120 176 311 147 172 124 218 199 220 235 216 94 49 350 238
232 238 241 248 234 233 226 218 216 212 220 184 150 130 192 197 221 190 191 201 200 209 196 190 164 142 162 128 182 245 182 87 352 232 46 145 243 202 211 87 109 241 217 143 135 196 244
230 235 241 243 234 228 225 219 214 213 217 179 148 206 170 185 225 200 197 193 193 190 207 190 183 196 175 158 175 193 228 99 201 220 254 228 240 221 249 255 205 218 214 193 198 223 210
228 230 237 242 236 227 222 221 212 211 212 188 164 145 189 185 199 207 198 215 198 197 196 192 205 196 191 195 178 174 185 158 197 179 216 204 267 250 262 245 236 259 248 222 215 241 250
225 228 234 241 239 232 223 217 213 210 207 196 199 170 183 164 194 208 202 206 206 203 194 206 206 172 195 177 170 126 174 187 246 161 210 181 212 152 251 342 311 291 237 235 224 217 220
224 228 234 242 250 247 223 217 209 212 205 195 189 163 178 204 181 212 202 206 210 205 202 193 210 205 144 129 108 85 83 136 208 206 194 210 171 161 279 133 251 256 122 253 248 250 229
232 235 240 247 260 253 222 215 209 213 208 202 190 185 196 158 193 208 208 204 207 210 216 179 194 154 151 154 93 78 40 21 279 207 231 228 139 201 184 221 285 299 188 211 221 292 235
232 242 246 250 264 245 218 210 206 213 208 204 207 191 203 181 197 197 205 206 197 191 198 110 116 151 162 86 93 139 200 194 217 161 272 212 211 198 183 238 255 72 107 48 35 241 359
233 241 243 248 258 237 213 207 211 208 205 204 202 187 203 179 196 201 212 212 198 185 172 125 135 162 185 129 133 180 208 196 169 174 172 179 197 205 243 254 282 107 135 154 208 43 6
234 242 240 245 256 229 212 207 209 209 201 199 199 190 201 140 123 163 226 222 198 188 154 153 108 186 155 161 183 176 219 187 199 187 178 171 166 184 191 212 260 129 149 228 89 86 87
235 241 239 253 238 215 209 207 206 211 203 201 200 197 152 141 140 158 177 164 192 190 162 165 170 162 171 172 197 191 149 133 196 199 177 199 199 175 192 216 128 136 93 100 129 130 130
Height
1550 1551 1555 1557 1559 1561 1561 1561 1561 1560 1558 1557 1555 1555 1554 1553 1554 1553 1552 1553 1551 1549 1547 1546 1545 1545 1545 1545 1545 1544 1542 1541 1538 1535 1535 1535 1536 1539 1537 1541 1544 1547 1556 1561 1568 1575 1580
1547 1550 1552 1554 1556 1557 1559 1560 1560 1560 1559 1558 1556 1555 1555 1553 1553 1553 1552 1553 1552 1551 1548 1548 1547 1546 1545 1548 1546 1545 1543 1544 1541 1541 1540 1538 1540 1544 1547 1548 1548 1557 1562 1569 1574 1577 1582
1543 1547 1549 1552 1553 1555 1556 1559 1560 1560 1560 1558 1556 1555 1555 1554 1553 1553 1553 1553 1553 1552 1550 1550 1549 1548 1547 1552 1549 1547 1546 1546 1545 1544 1545 1544 1546 1549 1553 1558 1562 1563 1563 1573 1578 1579 1584
1539 1541 1544 1547 1549 1550 1555 1557 1558 1559 1559 1559 1556 1557 1554 1554 1553 1553 1553 1554 1554 1553 1551 1550 1552 1550 1552 1552 1550 1550 1550 1548 1547 1547 1550 1548 1548 1553 1557 1564 1568 1566 1569 1575 1579 1581 1584
1533 1536 1539 1542 1545 1548 1551 1554 1556 1557 1559 1559 1557 1557 1554 1553 1554 1553 1553 1554 1555 1554 1552 1551 1553 1553 1555 1554 1554 1551 1552 1553 1551 1553 1554 1554 1552 1557 1564 1563 1569 1564 1568 1576 1582 1579 1582
1526 1530 1535 1538 1541 1543 1547 1550 1553 1555 1558 1559 1558 1557 1554 1553 1554 1555 1553 1554 1555 1556 1554 1553 1555 1555 1557 1557 1556 1554 1554 1557 1554 1555 1556 1557 1556 1559 1560 1559 1565 1565 1563 1574 1577 1581 1580
1521 1524 1529 1533 1536 1539 1542 1546 1550 1554 1557 1557 1557 1555 1553 1554 1555 1556 1556 1556 1558 1560 1556 1557 1559 1557 1556 1559 1557 1558 1558 1559 1558 1556 1555 1557 1557 1556 1555 1557 1553 1544 1559 1567 1571 1578 1577
1516 1517 1521 1527 1532 1535 1538 1542 1548 1552 1552 1556 1556 1554 1555 1556 1555 1556 1556 1558 1559 1561 1560 1557 1558 1558 1559 1559 1560 1560 1560 1562 1560 1554 1554 1556 1560 1559 1557 1557 1552 1553 1562 1571 1576 1577 1577
1512 1513 1516 1520 1526 1530 1534 1539 1543 1546 1550 1553 1552 1554 1556 1556 1555 1556 1557 1559 1558 1558 1559 1560 1558 1560 1561 1561 1560 1561 1562 1561 1559 1557 1556 1555 1565 1564 1560 1559 1557 1556 1563 1577 1574 1578 1577
1508 1510 1512 1515 1520 1525 1530 1533 1538 1542 1546 1549 1551 1554 1557 1556 1558 1557 1558 1557 1557 1559 1557 1559 1559 1560 1562 1562 1563 1563 1562 1564 1561 1558 1557 1566 1568 1565 1562 1559 1560 1566 1562 1567 1573 1580 1576
1505 1506 1508 1510 1514 1519 1525 1528 1533 1538 1542 1546 1550 1553 1553 1555 1555 1557 1559 1557 1558 1561 1590 1558 1558 1561 1561 1564 1563 1565 1564 1565 1562 1563 1568 1575 1570 1569 1564 1566 1568 1570 1570 1569 1569 1572 1569
1500 1501 1503 1505 1509 1513 1519 1523 1528 1533 1537 1542 1547 1549 1552 1554 1554 1556 1557 1559 1561 1576 1589 1557 1557 1559 1562 1564 1563 1566 1565 1566 1567 1567 1570 1576 1576 1574 1570 1573 1574 1574 1572 1572 1572 1573 1585
1495 1497 1498 1501 1504 1508 1513 1518 1522 1527 1532 1538 1543 1546 1549 1551 1556 1556 1557 1562 1570 1582 1552 1556 1557 1557 1560 1564 1563 1565 1566 1568 1570 1577 1576 1578 1578 1580 1576 1576 1577 1575 1577 1589 1595 1589 1588
1490 1492 1494 1497 1500 1503 1507 1513 1519 1522 1527 1534 1538 1542 1545 1549 1553 1554 1558 1561 1584 1555 1554 1550 1555 1559 1561 1562 1562 1562 1564 1564 1565 1562 1570 1578 1590 1581 1580 1578 1578 1578 1578 1593 1601 1584 1566
1485 1486 1489 1491 1495 1499 1502 1508 1513 1518 1521 1527 1534 1538 1542 1546 1550 1554 1559 1572 1569 1550 1552 1553 1557 1564 1561 1560 1566 1566 1564 1561 1563 1562 1572 1573 1584 1584 1585 1583 1583 1577 1585 1580 1583 1579 1585
1479 1481 1484 1486 1490 1494 1497 1502 1507 1513 1517 1523 1528 1534 1537 1544 1548 1553 1556 1562 1548 1547 1548 1550 1555 1562 1566 1564 1567 1568 1564 1556 1560 1564 1569 1566 1587 1583 1586 1589 1586 1587 1582 1593 1601 1613 1598
1473 1476 1479 1480 1484 1488 1492 1497 1502 1508 1513 1520 1524 1529 1536 1542 1546 1551 1559 1549 1544 1547 1547 1550 1551 1556 1562 1563 1564 1567 1556 1562 1559 1568 1572 1569 1580 1591 1591 1589 1583 1590 1588 1587 1590 1592 1593
1468 1470 1473 1476 1479 1483 1488 1492 1498 1503 1508 1515 1519 1530 1537 1540 1544 1544 1546 1541 1542 1545 1548 1551 1553 1554 1555 1560 1562 1560 1561 1558 1562 1569 1573 1571 1577 1592 1585 1584 1585 1585 1582 1585 1606 1602 1589
1461 1465 1468 1471 1473 1478 1483 1487 1494 1498 1503 1509 1520 1525 1537 1537 1538 1535 1538 1540 1539 1543 1547 1549 1551 1553 1555 1558 1568 1566 1558 1570 1568 1572 1571 1572 1578 1590 1585 1586 1585 1586 1582 1599 1599 1589 1589
1455 1459 1463 1465 1469 1473 1478 1483 1489 1493 1500 1508 1518 1526 1532 1532 1530 1530 1530 1535 1537 1539 1542 1546 1550 1554 1557 1555 1562 1566 1562 1570 1572 1574 1576 1574 1573 1577 1585 1582 1586 1598 1588 1600 1600 1596 1584
1450 1454 1457 1460 1464 1468 1473 1478 1485 1489 1497 1505 1506 1518 1516 1528 1528 1524 1528 1528 1531 1536 1539 1544 1550 1549 1551 1558 1561 1563 1564 1570 1573 1575 1577 1576 1583 1580 1580 1575 1577 1576 1583 1587 1596 1580 1583
1444 1448 1452 1455 1458 1463 1468 1474 1480 1486 1493 1496 1498 1503 1511 1515 1522 1520 1521 1522 1524 1529 1535 1538 1541 1545 1548 1554 1553 1560 1560 1565 1569 1574 1577 1575 1578 1574 1580 1572 1572 1576 1568 1571 1578 1579 1574
1438 1443 1447 1450 1454 1458 1463 1469 1475 1481 1488 1489 1494 1497 1508 1506 1515 1516 1514 1518 1520 1524 1530 1534 1540 1542 1548 1550 1553 1554 1558 1562 1564 1567 1573 1573 1577 1581 1581 1574 1575 1583 1566 1562 1559 1560 1566
1433 1437 1441 1444 1448 1452 1457 1463 1470 1475 1481 1487 1493 1499 1506 1512 1505 1508 1513 1516 1518 1519 1525 1532 1534 1537 1548 1551 1555 1556 1560 1563 1564 1564 1566 1568 1575 1581 1585 1582 1590 1555 1549 1551 1552 1551 1553
1426 1431 1435 1439 1442 1445 1450 1458 1464 1470 1477 1484 1491 1494 1501 1503 1505 1509 1510 1511 1517 1520 1525 1531 1537 1539 1544 1551 1555 1566 1572 1573 1570 1565 1567 1566 1572 1587 1590 1581 1562 1552 1549 1553 1553 1549 1543
1421 1425 1429 1433 1435 1438 1443 1451 1459 1465 1471 1482 1486 1490 1499 1496 1494 1501 1506 1509 1511 1515 1523 1534 1538 1541 1545 1549 1561 1573 1569 1566 1573 1568 1569 1569 1570 1579 1581 1581 1573 1552 1553 1554 1554 1556 1551
1415 1418 1422 1426 1429 1432 1438 1445 1453 1459 1465 1477 1483 1489 1494 1491 1495 1499 1505 1506 1510 1514 1520 1532 1538 1544 1546 1553 1562 1557 1557 1548 1565 1568 1576 1574 1576 1582 1580 1573 1558 1550 1554 1554 1561 1562 1556
1408 1412 1416 1419 1422 1426 1432 1439 1447 1454 1463 1473 1480 1487 1487 1485 1492 1493 1508 1507 1508 1510 1518 1529 1540 1545 1548 1554 1548 1547 1547 1547 1547 1549 1558 1563 1570 1575 1574 1582 1573 1553 1555 1556 1558 1558 1558
1402 1406 1410 1413 1414 1419 1426 1434 1443 1450 1459 1470 1478 1484 1482 1482 1488 1497 1504 1504 1505 1510 1515 1525 1527 1532 1539 1543 1540 1540 1547 1545 1545 1552 1548 1557 1550 1556 1559 1557 1554 1555 1557 1558 1557 1558 1559